#timestamp,LO_Frequency,Hit,StdDev 
1653454815.1,286046998.9,N
1653454835.9,286046999.5,N
1653454855.7,286046999.2,N
1653454875.6,286046998.5,N
1653454895.4,286046998.7,N
1653454915.2,286047001.1,N
1653454935.1,286047001.2,N
1653454936.0,286047001.2,N
1653454955.8,286046999.3,N
1653454975.6,286046998.8,N
1653454995.5,286046999.4,N
1653455015.3,286047001.1,N
1653455035.2,286046998.2,N
1653455055.9,286046998.2,N
1653455075.7,286046998.4,N
1653455095.6,286046998.2,N
1653455115.4,286047001.1,N
1653455135.2,286046998.7,N
1653455155.1,286046998.2,N
1653455156.0,286046998.2,N
1653455175.8,286046998.7,N
1653455195.7,286046998.1,N
1653455215.5,286047001.2,N
1653455235.3,286046998.2,N
1653455255.2,286047000.7,N
1653455275.0,286046998.1,N
1653455275.9,286046998.1,N
1653455295.8,286047001.2,N
1653455315.6,286047002.7,N
1653455335.4,286046999.9,N
1653455355.3,286047000.3,N
1653455375.1,286046999.7,N
1653455395.8,286047000.2,N
1653455415.7,286047001.2,N
1653455435.5,286047001.0,N
1653455455.4,286047000.1,N
1653455475.2,286047000.7,N
1653455495.0,286046998.6,N
1653455495.9,286046998.6,N
1653455515.8,286047000.8,N
1653455535.6,286046998.2,N
1653455555.5,286047000.5,N
1653455575.3,286047000.9,N
1653455595.1,286047000.8,N
1653455615.9,286047000.5,N
1653455635.7,286047000.7,N
1653455655.6,286047000.4,N
1653455675.4,286047000.0,N
1653455695.2,286047000.7,N
1653455715.1,286047001.0,N
1653455716.0,286047001.0,N
1653455735.8,286047000.9,N
1653455755.6,286047002.4,N
1653455775.5,286046999.9,N
1653455795.3,286046999.9,N
1653455815.2,286047000.0,N
1653455835.9,286047002.7,N
1653455855.7,286047002.6,N
1653455875.6,286047001.6,N
1653455895.4,286047002.8,N
1653455915.2,286047002.1,N
1653455935.1,286046999.8,N
1653455936.0,286046999.8,N
1653455955.8,286047002.2,N
1653455975.7,286047000.0,N
1653455995.5,286046999.8,N
1653456015.3,286047002.4,N
1653456035.2,286047000.6,N
1653456055.0,286047000.6,N
1653456055.9,286047000.6,N
1653456075.8,286046999.7,N
1653456095.6,286047000.1,N
1653456115.4,286046999.7,N
1653456135.3,286046999.9,N
1653456155.1,286047000.1,N
1653456175.9,286046999.8,N
1653456195.7,286046999.8,N
1653456215.5,286047002.2,N
1653456235.4,286047002.7,N
1653456255.2,286046999.7,N
1653456275.0,286047002.8,N
1653456275.9,286047002.8,N
1653456295.8,286047002.6,N
1653456315.6,286047000.0,N
1653456335.5,286047002.5,N
1653456355.3,286047002.6,N
1653456375.1,286047002.6,N
1653456395.9,286047002.3,N
1653456415.7,286046999.7,N
1653456435.5,286047002.7,N
1653456455.4,286046999.7,N
1653456475.2,286046999.9,N
1653456495.1,286047002.7,N
1653456496.0,286047002.7,N
1653456515.8,286047002.3,N
1653456535.6,286047002.3,N
1653456555.5,286047002.1,N
1653456575.3,286047001.8,N
1653456595.1,286047001.6,N
1653456615.9,286047004.0,Y
1653456635.7,286047001.6,P
1653456655.6,286047002.6,P
1653456675.4,286047002.5,P
1653456695.2,286047002.3,Y
1653456715.1,286046998.3,P
1653456716.0,286046998.3,N
1653456735.8,286047001.2,N
1653456755.7,286046998.6,N
1653456775.5,286046999.6,N
1653456795.3,286046997.1,N
1653456815.2,286046999.4,N
1653456835.0,286046996.5,N
1653456835.9,286046996.5,N
1653456855.8,286046997.8,N
1653456875.6,286046998.8,N
1653456895.4,286046999.2,N
1653456915.3,286046998.9,N
1653456935.1,286046998.9,N
1653456955.9,286046997.2,N
1653456975.7,286046997.4,N
1653456995.5,286046995.0,Y
1653457015.4,286046996.9,P
1653457035.2,286046999.4,N
1653457055.1,286046999.6,N
1653457056.0,286046999.6,N
1653457075.8,286046997.5,N
1653457095.6,286046996.3,Y
1653457115.5,286046997.1,P
1653457135.3,286046997.9,N
1653457155.2,286046997.8,P
1653457175.9,286046997.2,Y
1653457195.4,286046998.5,P
1653457215.3,286047001.1,P
1653457235.1,286046999.9,N
1653457255.9,286047000.9,N
1653457275.7,286047001.1,N
1653457295.5,286046998.5,N
1653457315.4,286046998.3,N
1653457335.2,286046998.2,N
1653457355.0,286046999.2,N
1653457355.9,286046999.2,N
1653457375.8,286046999.2,N
1653457395.6,286046996.7,N
1653457415.5,286046999.1,N
1653457435.3,286046999.1,N
1653457455.1,286046999.6,N
1653457475.9,286046996.9,N
1653457495.7,286046997.0,N
1653457515.6,286046998.0,N
1653457535.4,286046997.6,N
1653457555.2,286046996.9,N
1653457575.1,286046999.4,N
1653457576.0,286046999.4,N
1653457595.8,286046997.8,N
1653457615.6,286046996.7,N
1653457635.5,286046996.6,N
1653457655.3,286046999.4,N
1653457675.2,286046998.1,N
1653457695.9,286047000.5,N
1653457715.7,286046999.0,N
1653457735.6,286046999.5,N
1653457755.4,286046999.3,N
1653457775.2,286046999.6,N
1653457795.1,286046996.9,N
1653457796.0,286046996.9,N
1653457815.8,286046998.9,N
1653457835.7,286046999.1,N
1653457855.5,286046997.2,N
1653457875.3,286046995.0,Y
1653457895.2,286046996.8,P
1653457915.0,286046996.8,P
1653457915.9,286046996.8,P
1653457935.8,286046997.1,Y
1653457955.6,286047000.1,P
1653457975.4,286047002.4,N
1653457995.3,286047002.8,N
1653458015.1,286047000.9,N
1653458035.8,286047000.6,N
1653458055.7,286047002.8,N
1653458075.5,286047002.4,N
1653458095.4,286046999.7,N
1653458115.2,286047001.6,N
1653458135.0,286047000.2,N
1653458135.9,286047000.2,N
1653458155.8,286047001.2,N
1653458175.6,286047001.0,N
1653458195.4,286047002.8,N
1653458215.3,286047001.8,N
1653458235.1,286047002.6,N
1653458255.9,286047002.2,N
1653458275.7,286047001.7,N
1653458295.5,286047001.5,N
1653458315.4,286047002.2,N
1653458335.2,286047001.5,N
1653458355.0,286047003.8,N
1653458356.0,286047003.8,N
1653458375.8,286047004.2,N
1653458395.6,286047001.8,N
